This is the latest recevied weather packets stored in our database for station/object K4IR. If no packets are shown the sender has not sent any weather packets the latest 10 day(s).
| Time | Temp. | Humidity | Pressure | Rain* | Wind** | Luminosity | Snow |
|---|---|---|---|---|---|---|---|
| 1787578498 | 26.67° C | 99% | 1015.6 hPa | 0 mm | - | 195 W/m² | - |
| 1787577893 | 26.67° C | 99% | 1015.5 hPa | 0 mm | - | 144 W/m² | - |
| 1787577290 | 26.11° C | 99% | 1015.6 hPa | 0 mm | - | 165 W/m² | - |
| 1787576687 | 26.11° C | 99% | 1015.6 hPa | 0 mm | - | 117 W/m² | - |
| 1787576084 | 25.56° C | 99% | 1015.7 hPa | 0 mm | - | 116 W/m² | - |
| 1787575481 | 25° C | 99% | 1015.4 hPa | 0 mm | - | 103 W/m² | - |
| 1787574876 | 24.44° C | 99% | 1015.4 hPa | 0 mm | - | 108 W/m² | - |
| 1787574277 | 23.89° C | 99% | 1015.6 hPa | 0 mm | - | 69 W/m² | - |
| 1787573677 | 23.89° C | 99% | 1015.5 hPa | 0 mm | - | 51 W/m² | - |
| 1787573074 | 23.33° C | 99% | 1015.5 hPa | 0 mm | - | 25 W/m² | - |
| 1787572472 | 23.33° C | 99% | 1015.2 hPa | 0 mm | - | 23 W/m² | - |
| 1787571872 | 22.78° C | 99% | 1014.9 hPa | 0 mm | - | 33 W/m² | - |
| 1787571271 | 22.78° C | 99% | 1014.8 hPa | 0 mm | - | 30 W/m² | - |
| 1787570669 | 22.22° C | 99% | 1014.4 hPa | 0 mm | - | 31 W/m² | - |
| 1787570067 | 22.22° C | 99% | 1014.4 hPa | 0.51 mm | - | 20 W/m² | - |
| 1787569464 | 22.22° C | 99% | 1014.5 hPa | 0 mm | - | 12 W/m² | - |
| 1787568864 | 22.22° C | 99% | 1014.2 hPa | 0 mm | - | 9 W/m² | - |
| 1787568261 | 21.67° C | 99% | 1014.1 hPa | 0 mm | - | 2 W/m² | - |
| 1787567657 | 22.22° C | 99% | 1014.2 hPa | 0 mm | - | 1 W/m² | - |
| 1787567057 | 22.22° C | 99% | 1014 hPa | 0 mm | - | 0 W/m² | - |
| 1787566452 | 22.22° C | 99% | 1013.8 hPa | 0 mm | - | 0 W/m² | - |
| 1787565848 | 22.22° C | 99% | 1013.9 hPa | 0 mm | - | 0 W/m² | - |
| 1787565244 | 22.22° C | 99% | 1014 hPa | 0 mm | - | 0 W/m² | - |
| 1787564641 | 22.22° C | 99% | 1014.3 hPa | 0 mm | - | 0 W/m² | - |
| 1787564037 | 22.22° C | 99% | 1013.7 hPa | 0 mm | - | 0 W/m² | - |
* Rain latest hour (hover to see other rain measurements)
** Current wind speed in m/s (hover to see current wind gust speed)